Temperature
14 14 14 13 13 13 13 13 13 13 13 13 13 13 13 13 13 13 13 13 13 13 13 13 13 13 13 13 13 13 13 13 13 12 12 12 12 12 12 12 12 12 12
13 13 13 13 13 13 13 13 13 13 13 12 12 12 12 13 13 13 13 13 13 13 13 13 13 13 13 13 13 13 13 12 12 12 12 12 12 12 12 12 12 12 11
13 13 13 13 13 13 13 13 13 12 12 12 12 12 12 12 12 12 12 12 12 12 13 13 13 12 12 12 12 12 12 12 12 12 12 12 12 12 12 11 11 11 11
13 13 13 13 13 12 12 12 12 12 12 12 12 12 12 12 12 12 12 12 12 12 12 12 12 12 12 12 12 12 12 12 12 12 12 12 12 11 11 11 11 11 11
12 13 13 12 12 12 12 12 12 12 12 12 12 12 12 12 12 12 12 12 12 12 12 12 12 12 12 12 12 12 12 12 12 12 11 11 11 11 11 11 11 11 11
12 12 12 12 12 12 12 12 12 11 11 11 11 11 11 11 11 11 11 11 11 11 11 11 11 11 12 11 11 11 11 11 11 11 11 11 11 11 11 10 10 10 10
12 12 12 12 12 12 12 11 11 11 11 11 11 11 11 11 11 11 11 11 11 11 11 11 11 11 11 11 11 11 11 11 11 11 11 11 11 11 10 10 10 10 10
11 11 11 11 11 11 11 11 11 11 11 11 11 10 10 10 10 10 10 11 11 11 11 11 11 11 11 11 11 11 11 11 11 11 11 11 10 10 10 10 10 10 10
11 11 11 11 11 11 11 11 11 11 11 11 11 11 10 10 10 10 10 10 10 10 10 10 10 10 10 10 10 10 10 10 10 10 10 10 10 10 10 10 10 9 9
10 11 11 11 11 11 11 11 11 11 11 11 10 10 10 10 10 10 10 10 10 10 10 10 10 10 10 10 10 10 10 10 10 10 10 10 10 9 10 10 9 9 9
10 10 10 10 10 10 10 10 10 10 10 10 10 10 10 10 10 10 9 9 9 9 9 9 9 9 9 9 10 10 10 10 10 10 9 9 9 9 9 9 9 9 9
10 10 10 10 10 10 10 10 10 10 10 10 10 10 10 10 10 10 10 9 9 9 9 9 9 9 9 9 9 9 9 9 9 9 9 9 9 9 9 9 9 9 9
9 9 9 9 9 10 10 9 9 9 9 9 9 9 9 9 9 9 9 9 8 8 8 8 8 8 8 8 8 8 9 9 9 9 9 8 8 8 8 8 8 8 8
9 9 9 9 9 9 9 9 9 9 9 8 8 9 9 9 9 9 9 9 8 8 8 8 8 8 8 8 8 8 8 8 8 8 8 8 8 8 8 8 8 8 8
8 8 8 8 8 8 8 8 8 8 8 8 8 8 8 8 8 8 8 8 8 7 7 7 7 7 7 7 7 7 7 8 8 8 8 8 8 7 7 7 7 7 7
8 8 8 8 8 8 8 8 8 8 7 7 7 7 7 7 7 8 8 8 8 8 7 7 7 7 7 7 7 7 7 7 7 7 7 7 7 7 7 7 7 7 7
7 7 7 7 7 7 7 7 7 7 7 7 7 7 7 7 7 7 7 7 7 7 7 7 6 6 6 6 6 6 6 6 6 7 7 7 7 6 6 6 6 6 6
7 7 7 7 7 7 7 7 7 7 7 7 7 6 7 6 6 7 7 7 7 7 6 6 6 6 6 6 5 5 6 6 6 6 6 6 6 6 6 6 5 5 5
6 6 6 6 6 6 6 6 6 6 6 6 6 6 6 6 6 6 6 6 6 6 6 6 6 5 5 5 5 5 5 5 5 5 5 5 5 5 5 5 5 5 4
5 5 6 6 6 6 6 6 6 6 6 6 6 6 6 6 6 6 5 5 5 5 5 5 5 5 5 4 4 4 4 5 5 5 5 5 5 4 4 4 4 4 4
5 5 5 5 5 5 5 5 5 6 5 5 5 5 5 5 5 5 5 5 5 5 5 4 4 4 4 4 4 4 4 4 4 4 4 4 4 4 4 4 4 3 3
4 4 4 4 5 5 5 5 5 5 5 5 5 5 5 5 4 4 4 4 4 4 4 4 4 3 3 3 3 3 3 3 3 3 3 4 3 3 3 3 3 3 3
4 4 4 4 4 4 4 4 4 4 4 4 4 4 4 4 4 4 4 4 4 3 3 3 3 3 3 3 3 2 2 2 2 2 3 3 3 3 3 3 2 2 2
3 3 3 3 3 3 4 4 4 4 4 4 4 4 4 4 4 3 3 3 3 3 3 3 2 2 2 2 2 2 2 2 2 2 2 2 2 2 2 2 2 2 2
2 2 2 2 3 3 3 3 3 3 3 3 3 3 3 3 3 3 3 3 3 2 2 2 2 2 1 1 1 1 1 1 1 1 1 1 1 1 1 2 2 1 1
2 2 2 2 2 2 2 2 2 2 2 2 2 2 2 2 2 2 2 2 2 2 2 1 1 1 1 1 1 1 1 0 0 0 0 0 0 -0 0 1 1 1 1
Wind_Speed
6 6 7 7 7 8 7 7 6 6 5 5 5 5 5 6 6 6 7 8 9 8 8 8 7 6 6 6 6 6 5 5 5 6 5 5 5 5 6 6 6 6 7
7 6 6 6 6 7 8 7 6 5 4 4 4 4 5 6 6 6 7 7 8 8 7 7 7 6 5 5 5 5 5 4 4 4 5 5 5 5 5 5 5 5 5
9 7 5 5 6 7 8 7 7 6 4 3 2 3 4 5 6 6 7 7 7 7 7 6 5 5 4 4 5 5 5 5 5 4 4 4 5 4 4 4 4 4 4
10 8 5 4 6 7 7 5 4 4 3 3 2 1 2 3 4 5 6 6 6 6 6 5 5 4 3 4 4 4 4 4 4 4 4 3 3 3 3 3 3 3 3
10 9 6 6 7 6 5 4 3 4 4 3 2 1 1 2 2 4 4 4 5 6 6 5 5 4 3 3 3 3 3 3 3 3 3 3 3 2 2 2 2 2 3
10 9 7 6 7 4 3 3 4 4 4 4 4 3 2 1 2 2 3 3 4 5 6 5 5 4 4 3 2 2 3 3 3 2 3 2 2 2 2 2 2 2 2
9 8 6 6 6 4 5 5 4 5 3 4 4 2 3 3 2 1 2 3 3 3 5 5 5 5 4 3 2 2 2 2 2 2 2 2 2 2 2 2 2 2 2
8 7 6 5 5 4 5 5 4 3 2 3 3 3 1 2 2 2 1 1 2 2 3 3 4 5 5 4 3 2 2 2 2 2 2 1 1 2 1 1 1 1 1
7 7 7 6 5 5 5 5 5 5 4 2 2 3 3 3 1 2 1 1 0 1 1 2 3 4 5 4 3 2 2 2 3 2 2 2 2 2 2 2 2 1 1
6 7 7 7 6 5 5 5 4 4 5 3 1 0 2 3 3 1 1 1 1 1 1 0 2 3 4 4 3 3 2 2 3 3 3 3 3 3 2 2 3 2 2
5 6 7 6 5 5 5 5 4 4 4 4 3 2 1 1 2 2 1 1 1 1 1 0 1 2 3 3 3 3 2 2 2 2 2 2 3 3 3 3 3 3 3
2 4 6 6 5 4 5 5 5 5 4 3 3 2 3 2 2 2 2 2 1 1 1 1 1 1 2 2 3 3 2 2 1 1 1 2 3 3 3 3 3 4 4
2 4 4 4 4 5 5 5 4 4 4 4 4 3 2 2 2 3 3 2 1 1 1 1 1 1 1 2 2 2 1 1 1 2 2 2 3 3 3 3 4 3 3
4 3 4 4 5 5 5 5 3 4 3 4 4 3 2 2 2 2 3 3 2 0 1 2 1 1 1 1 1 2 1 1 2 2 3 3 3 4 3 3 3 2 3
3 4 4 4 4 5 5 5 4 4 4 4 3 3 2 2 2 2 2 3 4 3 3 2 1 1 1 1 1 1 1 1 2 3 3 3 3 4 3 2 2 2 2
4 4 4 4 4 4 5 5 4 4 4 4 3 3 3 2 1 2 2 2 2 3 3 2 2 1 0 0 0 1 0 1 2 3 3 3 3 3 3 3 2 2 3
5 5 5 5 5 5 5 5 5 5 5 4 4 4 3 3 2 2 2 2 2 2 2 2 1 1 0 0 0 1 1 1 2 3 3 3 3 3 3 3 4 4 3
5 5 5 6 5 5 5 6 6 5 6 6 5 5 4 3 3 2 2 2 2 2 3 2 1 1 1 1 0 1 1 2 3 3 4 4 4 4 4 4 4 4 4
4 4 5 6 6 5 5 5 6 5 5 6 6 6 5 5 3 2 2 2 2 1 2 3 2 1 1 0 0 1 2 2 3 4 3 3 4 5 5 5 5 5 5
5 5 5 5 5 5 5 5 5 5 4 4 4 4 5 5 5 5 3 3 3 2 2 2 2 1 1 1 0 1 2 2 2 3 2 3 4 5 5 6 6 6 6
4 4 5 4 4 4 4 5 5 5 5 4 3 3 3 5 5 4 4 4 4 3 2 2 2 1 1 1 1 1 2 2 2 1 2 3 4 4 5 6 6 7 7
3 4 5 5 4 4 6 7 6 5 5 5 4 3 3 3 4 4 4 4 5 4 4 3 2 3 3 2 2 1 1 1 2 2 1 3 2 2 5 6 7 8 8
3 4 4 5 5 5 7 8 7 5 5 4 4 4 2 2 3 4 4 4 3 3 4 4 4 4 3 3 3 2 2 2 3 3 1 3 2 3 6 7 8 8 8
4 4 4 4 4 5 7 7 7 5 4 3 4 4 4 3 3 5 4 3 2 1 2 2 3 3 2 3 3 3 2 2 2 3 1 2 3 3 6 8 8 8 9
3 3 4 4 5 4 6 7 6 4 4 3 3 3 4 4 5 6 5 4 2 1 2 3 2 2 1 1 2 1 0 1 3 2 0 1 2 3 4 4 7 8 10
3 3 3 3 4 4 5 6 6 4 4 3 3 3 4 5 6 6 5 5 4 2 1 1 1 1 1 1 1 1 2 1 2 2 1 1 1 2 3 3 4 7 8
Wind_Direction
151 151 152 154 155 153 149 148 143 137 129 127 131 134 133 138 135 136 140 138 140 140 139 134 131 132 129 124 119 114 112 108 109 103 95 93 98 89 82 77 77 77 75
149 150 150 153 157 160 157 152 146 140 134 124 119 128 133 138 143 142 146 149 150 147 145 142 136 131 133 131 127 123 113 114 113 116 109 96 97 97 89 80 72 75 77
154 152 150 152 160 160 153 143 135 131 128 119 113 113 128 139 140 146 150 154 157 155 151 148 141 138 135 137 136 132 125 115 113 113 111 105 101 100 93 85 76 80 79
159 151 150 154 155 149 143 141 136 132 130 130 128 116 110 128 140 148 151 157 160 162 159 156 155 150 142 143 145 142 136 127 120 118 114 118 119 110 99 85 79 83 84
160 154 153 155 151 141 141 147 139 136 134 133 133 114 93 110 134 141 140 154 159 161 160 159 155 156 155 153 150 151 147 142 131 129 132 131 133 127 110 89 79 96 98
157 152 151 152 147 137 133 137 136 128 136 135 115 86 53 50 93 119 147 150 158 162 158 153 150 154 156 163 167 165 164 158 149 147 147 139 143 141 119 88 78 93 92
154 151 149 148 148 147 151 145 133 133 131 126 107 77 28 24 47 64 114 123 129 150 150 156 159 156 161 170 166 169 169 172 167 161 153 159 166 170 155 120 93 101 85
155 157 152 153 152 146 144 144 134 136 144 143 132 123 90 359 354 12 50 118 130 136 138 156 159 162 164 165 175 171 185 191 190 190 194 197 213 211 204 190 177 164 75
157 155 158 156 155 153 158 159 155 151 165 178 149 144 155 197 238 344 357 15 81 97 137 163 168 172 172 172 180 191 207 214 216 223 230 231 233 230 230 244 225 210 234
160 161 160 160 159 156 160 168 167 161 158 172 184 146 143 144 154 170 335 350 11 20 15 138 157 168 166 169 178 194 206 211 222 234 237 241 241 245 251 260 254 241 249
163 166 165 162 163 162 164 164 162 161 167 169 168 154 125 88 109 146 193 282 1 327 337 26 128 161 173 172 172 179 190 204 228 241 251 259 260 263 274 282 281 266 262
166 166 168 166 165 165 169 169 167 169 174 165 161 152 152 157 170 159 180 198 225 297 340 20 45 179 166 174 179 170 173 196 213 243 270 285 284 281 287 293 288 280 270
189 194 176 169 167 171 169 162 164 174 176 172 172 178 175 169 153 150 152 165 190 263 334 354 343 267 199 162 163 159 154 220 253 270 285 299 304 302 300 299 297 296 291
195 183 178 176 175 173 170 164 168 180 175 180 181 178 170 177 157 159 160 157 157 246 310 282 329 328 262 178 177 164 125 289 291 292 299 305 315 306 292 293 295 298 310
178 174 178 180 177 173 170 164 180 186 177 185 188 182 179 180 167 159 153 163 167 195 234 243 256 286 238 179 192 135 97 322 311 306 299 301 305 303 294 281 291 300 314
172 174 182 184 184 178 173 171 176 181 180 190 187 179 182 179 163 161 161 162 170 180 209 217 228 258 181 143 269 89 5 342 324 308 295 293 294 292 293 288 289 290 301
174 179 184 187 191 188 181 179 184 182 187 191 187 184 193 178 174 181 165 155 157 156 196 242 243 238 160 176 359 351 328 329 324 303 297 292 286 283 285 291 299 292 289
179 180 181 185 191 192 187 186 191 190 191 194 193 184 190 175 177 178 165 162 171 163 172 206 237 237 252 229 304 352 338 311 303 293 288 284 283 287 291 285 288 287 282
178 181 181 184 188 188 188 191 187 186 192 194 191 188 186 170 179 176 165 165 166 152 152 174 207 215 255 277 346 333 338 321 307 293 286 286 291 294 292 285 282 284 282
180 183 181 182 185 181 178 177 174 172 175 178 179 181 180 178 180 175 173 174 163 145 137 155 175 189 226 298 37 289 305 300 308 312 300 301 299 296 294 291 285 282 282
175 173 166 165 165 168 170 163 163 162 161 161 162 166 168 168 175 179 179 174 164 159 158 164 188 202 214 221 245 256 270 299 308 305 306 306 302 300 301 293 284 281 284
164 162 164 164 164 180 173 170 165 158 159 163 164 162 156 150 159 162 157 159 163 169 177 190 210 210 227 228 237 241 255 294 296 310 308 302 296 277 291 291 288 289 288
145 148 156 157 164 173 172 170 168 159 157 161 161 157 155 145 146 134 124 117 127 159 181 189 195 219 225 221 212 228 244 256 265 289 295 283 289 280 291 288 291 288 289
145 149 150 150 154 167 167 164 156 147 143 151 156 155 156 157 154 143 132 125 124 117 149 153 182 208 217 207 200 211 227 256 283 297 261 264 291 288 300 290 284 286 291
142 145 144 145 145 148 153 156 154 145 143 152 155 156 157 158 161 156 148 147 141 138 118 140 160 156 163 178 170 141 170 304 295 295 269 241 279 293 291 282 285 290 293
141 137 135 141 147 152 154 153 157 154 156 157 147 153 167 169 171 171 170 164 172 192 157 100 85 52 55 77 153 180 199 223 269 278 264 239 266 311 301 288 289 294 298
Height
1544 1546 1548 1550 1552 1554 1556 1558 1559 1561 1563 1564 1566 1567 1568 1569 1570 1571 1571 1572 1573 1573 1574 1574 1574 1574 1574 1574 1573 1573 1573 1573 1572 1572 1571 1571 1571 1570 1570 1569 1569 1568 1568
1543 1545 1547 1549 1551 1553 1555 1557 1558 1560 1562 1563 1565 1566 1568 1569 1569 1570 1571 1572 1573 1573 1574 1574 1574 1574 1574 1574 1573 1573 1573 1573 1572 1572 1571 1571 1571 1570 1570 1570 1569 1568 1568
1542 1544 1546 1548 1550 1552 1554 1555 1557 1559 1561 1562 1564 1565 1567 1568 1569 1570 1571 1571 1572 1573 1573 1574 1574 1574 1574 1574 1573 1573 1573 1572 1572 1572 1571 1571 1571 1570 1570 1569 1569 1568 1568
1540 1542 1544 1546 1548 1550 1552 1554 1556 1557 1559 1561 1563 1564 1566 1567 1568 1569 1570 1571 1572 1572 1573 1573 1573 1573 1573 1573 1573 1573 1572 1572 1572 1571 1571 1571 1570 1570 1569 1569 1568 1568 1567
1538 1541 1542 1545 1547 1549 1551 1552 1554 1556 1558 1559 1561 1563 1564 1566 1567 1568 1569 1570 1570 1571 1572 1572 1572 1572 1572 1572 1572 1572 1572 1572 1571 1571 1570 1570 1570 1569 1569 1568 1568 1567 1567
1536 1539 1541 1543 1545 1547 1549 1551 1552 1554 1556 1558 1560 1561 1563 1564 1565 1566 1567 1568 1569 1570 1570 1571 1571 1571 1571 1571 1571 1571 1571 1571 1570 1570 1570 1569 1569 1568 1568 1567 1567 1566 1566
1534 1536 1538 1540 1542 1544 1546 1549 1550 1552 1554 1556 1558 1559 1561 1562 1563 1564 1565 1566 1567 1568 1569 1569 1569 1570 1570 1570 1570 1570 1569 1569 1569 1569 1568 1568 1568 1567 1567 1566 1566 1565 1565
1532 1534 1536 1538 1540 1542 1544 1546 1548 1550 1552 1554 1555 1557 1559 1561 1561 1562 1563 1564 1565 1566 1567 1567 1567 1568 1568 1568 1568 1568 1568 1568 1568 1567 1567 1566 1566 1566 1565 1565 1564 1564 1563
1529 1532 1534 1536 1537 1539 1541 1543 1546 1548 1549 1551 1553 1555 1556 1557 1558 1560 1561 1562 1563 1563 1564 1565 1565 1566 1566 1566 1566 1566 1566 1566 1566 1565 1565 1565 1564 1564 1564 1563 1563 1562 1561
1527 1529 1531 1533 1535 1537 1539 1541 1543 1545 1547 1548 1550 1552 1554 1554 1556 1556 1558 1559 1560 1561 1562 1562 1563 1563 1564 1564 1564 1564 1564 1564 1564 1563 1563 1563 1562 1562 1561 1561 1560 1560 1559
1524 1526 1528 1530 1532 1534 1536 1538 1540 1542 1544 1545 1547 1549 1551 1552 1553 1554 1555 1557 1558 1558 1559 1560 1560 1560 1561 1561 1561 1561 1562 1561 1561 1561 1561 1560 1560 1560 1559 1558 1558 1557 1557
1520 1523 1525 1527 1529 1531 1533 1535 1537 1539 1541 1543 1544 1546 1547 1549 1550 1551 1552 1553 1554 1555 1556 1557 1557 1558 1558 1558 1559 1559 1559 1559 1558 1558 1558 1558 1557 1557 1556 1556 1555 1555 1554
1517 1519 1522 1524 1526 1528 1530 1532 1534 1536 1537 1539 1541 1543 1544 1546 1548 1549 1550 1550 1551 1552 1553 1554 1554 1555 1555 1555 1556 1556 1556 1556 1555 1555 1555 1554 1554 1554 1553 1553 1553 1552 1551
1514 1516 1518 1520 1522 1524 1526 1529 1530 1532 1534 1536 1537 1539 1541 1543 1544 1546 1547 1548 1548 1549 1549 1550 1551 1552 1552 1552 1553 1553 1553 1553 1552 1552 1552 1551 1551 1550 1550 1550 1549 1549 1548
1511 1513 1515 1517 1519 1521 1523 1525 1527 1528 1530 1532 1534 1536 1537 1539 1541 1542 1544 1545 1546 1545 1545 1546 1547 1548 1549 1549 1549 1549 1549 1549 1549 1549 1548 1548 1547 1547 1547 1546 1546 1545 1544
1507 1509 1511 1513 1515 1517 1519 1521 1523 1525 1527 1529 1530 1532 1534 1536 1537 1539 1540 1541 1542 1543 1542 1542 1544 1544 1545 1546 1546 1546 1546 1546 1546 1546 1545 1544 1544 1543 1543 1542 1542 1541 1540
1503 1505 1507 1510 1511 1514 1516 1517 1519 1521 1523 1525 1527 1528 1530 1532 1534 1535 1536 1537 1538 1539 1539 1539 1540 1541 1542 1542 1542 1543 1543 1542 1542 1542 1542 1541 1540 1540 1539 1538 1537 1537 1536
1500 1502 1504 1506 1508 1510 1512 1514 1516 1518 1519 1521 1523 1525 1527 1528 1530 1531 1532 1533 1534 1535 1535 1535 1536 1537 1538 1538 1539 1539 1539 1539 1539 1538 1538 1537 1536 1536 1535 1534 1534 1533 1532
1496 1498 1500 1502 1504 1506 1508 1511 1512 1514 1516 1518 1520 1521 1523 1524 1526 1527 1528 1529 1530 1531 1531 1532 1532 1533 1534 1535 1535 1535 1535 1535 1535 1535 1534 1533 1533 1532 1531 1531 1530 1529 1528
1492 1494 1496 1499 1501 1503 1505 1507 1509 1511 1513 1514 1516 1518 1519 1520 1522 1523 1524 1525 1526 1527 1528 1528 1529 1529 1530 1531 1531 1531 1531 1531 1531 1531 1530 1529 1529 1528 1527 1527 1526 1525 1524
1489 1491 1493 1495 1497 1499 1501 1503 1505 1507 1509 1511 1512 1514 1515 1517 1518 1520 1521 1522 1523 1523 1524 1525 1525 1525 1526 1527 1527 1527 1527 1527 1526 1526 1526 1525 1525 1524 1523 1522 1521 1520 1520
1485 1488 1490 1491 1493 1495 1498 1500 1502 1504 1505 1507 1508 1510 1512 1513 1515 1516 1517 1518 1520 1520 1521 1521 1521 1522 1522 1523 1524 1524 1524 1523 1522 1523 1521 1521 1521 1519 1519 1518 1517 1516 1515
1482 1484 1486 1488 1490 1492 1494 1496 1499 1500 1502 1504 1505 1507 1508 1510 1512 1513 1514 1515 1516 1517 1518 1519 1519 1519 1520 1520 1521 1521 1520 1519 1519 1518 1517 1516 1516 1515 1515 1514 1513 1512 1511
1479 1481 1482 1484 1486 1488 1491 1493 1495 1496 1498 1500 1502 1504 1505 1507 1509 1510 1511 1512 1513 1513 1514 1515 1516 1516 1517 1517 1517 1517 1517 1516 1514 1513 1513 1511 1511 1510 1510 1509 1508 1507 1506
1476 1478 1479 1481 1483 1485 1487 1489 1491 1493 1495 1497 1499 1501 1502 1504 1505 1507 1508 1508 1509 1510 1511 1512 1513 1513 1514 1514 1514 1514 1513 1512 1509 1509 1508 1507 1506 1505 1504 1504 1503 1502 1501
1473 1475 1476 1479 1480 1482 1484 1486 1488 1490 1491 1493 1495 1497 1499 1501 1502 1503 1505 1505 1506 1507 1508 1509 1510 1510 1510 1510 1510 1510 1509 1508 1506 1505 1504 1504 1502 1501 1499 1498 1498 1497 1496